• In Belarus
  • List of Countries
  • For 7 days
  • Water Temperature
  • Satellite Maps
  • Weather Map
  • Weather Widgets
  • user-avatar
    Login

    Hourly Weather Sainte-Anne-des-Plaines

    Today, 20 January, Saturday

    Time Temperature Precipitation Wind Pressure Humidity
    00:00 -5°C° 0.1 mm 5 mps 746 mmHg 89%
    01:00 -4°C° 0.1 mm 5 mps 745 mmHg 89%
    02:00 -4°C° 0.1 mm 6 mps 745 mmHg 87%
    03:00 -3°C° 0.1 mm 7 mps 744 mmHg 86%
    04:00 -2°C° 0.1 mm 7 mps 743 mmHg 85%
    05:00 -2°C° 0 mm 8 mps 743 mmHg 84%
    06:00 -2°C° 0 mm 8 mps 743 mmHg 83%
    07:00 -2°C° 0 mm 8 mps 744 mmHg 82%
    08:00 -2°C° 0 mm 8 mps 744 mmHg 83%
    09:00 -1°C° 0 mm 8 mps 744 mmHg 84%
    10:00 -1°C° 0 mm 8 mps 745 mmHg 85%
    11:00 -1°C° 0 mm 8 mps 745 mmHg 86%
    12:00 -1°C° 0 mm 7 mps 745 mmHg 88%
    13:00 -1°C° 0 mm 7 mps 746 mmHg 89%
    14:00 -1°C° 0.1 mm 7 mps 746 mmHg 88%
    15:00 -1°C° 0.1 mm 7 mps 747 mmHg 88%
    16:00 -1°C° 0.1 mm 7 mps 748 mmHg 87%
    17:00 -1°C° 0 mm 6 mps 749 mmHg 86%
    18:00 -2°C° 0 mm 6 mps 750 mmHg 84%
    19:00 -1°C° 0 mm 5 mps 751 mmHg 83%
    20:00 -4°C° 0 mm 5 mps 752 mmHg 82%
    21:00 -4°C° 0 mm 4 mps 753 mmHg 81%
    22:00 -5°C° 0 mm 4 mps 754 mmHg 80%
    23:00 -6°C° 0 mm 3 mps 754 mmHg 80%

    Tomorrow, 21 January, Sunday

    Time Temperature Precipitation Wind Pressure Humidity
    00:00 -7°C° 0 mm 3 mps 755 mmHg 81%
    01:00 -7°C° 0 mm 2 mps 755 mmHg 82%
    02:00 -7°C° 0 mm 2 mps 756 mmHg 83%
    03:00 -7°C° 0 mm 1 mps 756 mmHg 83%
    04:00 -7°C° 0 mm 1 mps 757 mmHg 84%
    05:00 -7°C° 0 mm 1 mps 757 mmHg 85%
    06:00 -8°C° 0 mm 1 mps 758 mmHg 85%
    07:00 -8°C° 0 mm 1 mps 758 mmHg 85%
    08:00 -7°C° 0 mm 1 mps 759 mmHg 82%
    09:00 -6°C° 0 mm 1 mps 759 mmHg 79%
    10:00 -6°C° 0 mm 1 mps 759 mmHg 76%
    11:00 -4°C° 0 mm 1 mps 759 mmHg 75%
    12:00 -3°C° 0 mm 1 mps 759 mmHg 75%
    13:00 -2°C° 0 mm 1 mps 759 mmHg 74%
    14:00 -2°C° 0 mm 1 mps 759 mmHg 79%
    15:00 -2°C° 0 mm 1 mps 758 mmHg 83%
    16:00 -2°C° 0 mm 1 mps 758 mmHg 88%
    17:00 -2°C° 0 mm 1 mps 759 mmHg 90%
    18:00 -2°C° 0 mm 1 mps 759 mmHg 91%
    19:00 -2°C° 0 mm 1 mps 759 mmHg 93%
    20:00 -2°C° 0 mm 1 mps 760 mmHg 94%
    21:00 -2°C° 0 mm 1 mps 760 mmHg 94%
    22:00 -2°C° 0 mm 1 mps 760 mmHg 95%
    23:00 -2°C° 0.1 mm 1 mps 760 mmHg 95%

    Day after tomorrow, 22 January, Monday

    Time Temperature Precipitation Wind Pressure Humidity
    00:00 -2°C° 0.1 mm 1 mps 760 mmHg 95%
    01:00 -4°C° 0.1 mm 2 mps 761 mmHg 95%
    02:00 -5°C° 0.1 mm 2 mps 761 mmHg 93%
    03:00 -7°C° 0.1 mm 3 mps 761 mmHg 92%
    04:00 -9°C° 0.1 mm 4 mps 762 mmHg 90%
    05:00 -9°C° 0 mm 4 mps 762 mmHg 88%
    06:00 -10°C° 0 mm 4 mps 763 mmHg 86%
    07:00 -11°C° 0 mm 4 mps 764 mmHg 84%
    08:00 -11°C° 0 mm 4 mps 764 mmHg 80%
    09:00 -12°C° 0 mm 4 mps 764 mmHg 77%
    10:00 -12°C° 0 mm 4 mps 765 mmHg 73%
    11:00 -11°C° 0 mm 4 mps 764 mmHg 72%
    12:00 -11°C° 0 mm 4 mps 764 mmHg 70%
    13:00 -10°C° 0 mm 4 mps 763 mmHg 69%
    14:00 -10°C° 0 mm 4 mps 763 mmHg 70%
    15:00 -10°C° 0 mm 4 mps 763 mmHg 71%
    16:00 -10°C° 0 mm 4 mps 763 mmHg 72%
    17:00 -12°C° 0.1 mm 5 mps 763 mmHg 75%
    18:00 -12°C° 0.1 mm 5 mps 763 mmHg 77%
    19:00 -12°C° 0.1 mm 6 mps 762 mmHg 80%
    20:00 -12°C° 0.5 mm 6 mps 762 mmHg 84%
    21:00 -12°C° 0.5 mm 6 mps 761 mmHg 88%
    22:00 -13°C° 0.5 mm 7 mps 760 mmHg 92%
    23:00 -12°C° 1.5 mm 7 mps 759 mmHg 93%

    23 January, Tuesday

    Time Temperature Precipitation Wind Pressure Humidity
    00:00 -11°C° 1.5 mm 6 mps 758 mmHg 94%
    01:00 -10°C° 1.5 mm 6 mps 757 mmHg 95%
    02:00 -10°C° 1.4 mm 6 mps 756 mmHg 95%
    03:00 -9°C° 1.4 mm 6 mps 755 mmHg 95%
    04:00 -8°C° 1.4 mm 6 mps 754 mmHg 95%
    05:00 -8°C° 1.8 mm 6 mps 753 mmHg 95%
    06:00 -6°C° 1.8 mm 6 mps 752 mmHg 96%
    07:00 -7°C° 1.8 mm 7 mps 751 mmHg 96%
    08:00 -5°C° 1.4 mm 6 mps 750 mmHg 96%
    09:00 -5°C° 1.4 mm 6 mps 749 mmHg 97%
    10:00 -4°C° 1.4 mm 6 mps 748 mmHg 97%
    11:00 -4°C° 0.8 mm 5 mps 747 mmHg 97%
    12:00 -2°C° 0.8 mm 4 mps 746 mmHg 98%
    13:00 -1°C° 0.8 mm 4 mps 744 mmHg 98%
    14:00 0°C° 0.6 mm 3 mps 744 mmHg 98%
    15:00 +1°C° 0.6 mm 2 mps 743 mmHg 99%
    16:00 +2°C° 0.6 mm 2 mps 743 mmHg 99%
    17:00 +2°C° 0.3 mm 2 mps 743 mmHg 99%
    18:00 +1°C° 0.3 mm 2 mps 743 mmHg 98%
    19:00 +1°C° 0.3 mm 2 mps 743 mmHg 98%
    20:00 +1°C° 0.1 mm 2 mps 742 mmHg 97%
    21:00 +1°C° 0.1 mm 2 mps 742 mmHg 96%
    22:00 0°C° 0.1 mm 3 mps 742 mmHg 95%
    23:00 0°C° 0.2 mm 3 mps 741 mmHg 95%

    24 January, Wednesday

    Time Temperature Precipitation Wind Pressure Humidity
    00:00 0°C° 0.2 mm 3 mps 741 mmHg 95%
    01:00 0°C° 0.2 mm 3 mps 741 mmHg 95%
    02:00 0°C° 0.3 mm 3 mps 741 mmHg 95%
    03:00 -1°C° 0.3 mm 4 mps 741 mmHg 94%
    04:00 -1°C° 0.3 mm 4 mps 741 mmHg 94%
    05:00 -4°C° 0.1 mm 5 mps 742 mmHg 91%
    06:00 -5°C° 0.1 mm 6 mps 743 mmHg 89%
    07:00 -8°C° 0.1 mm 7 mps 744 mmHg 87%
    08:00 -9°C° 0 mm 7 mps 745 mmHg 86%
    09:00 -11°C° 0 mm 7 mps 746 mmHg 85%
    10:00 -12°C° 0 mm 7 mps 747 mmHg 84%
    11:00 -12°C° 0.1 mm 7 mps 748 mmHg 84%
    12:00 -12°C° 0.1 mm 7 mps 748 mmHg 84%
    13:00 -12°C° 0.1 mm 7 mps 748 mmHg 83%
    14:00 -13°C° 0.1 mm 7 mps 749 mmHg 83%
    15:00 -13°C° 0.1 mm 7 mps 750 mmHg 82%
    16:00 -14°C° 0.1 mm 7 mps 751 mmHg 82%
    17:00 -15°C° 0.1 mm 6 mps 752 mmHg 82%
    18:00 -15°C° 0.1 mm 6 mps 752 mmHg 82%
    19:00 -16°C° 0.1 mm 6 mps 753 mmHg 82%
    20:00 -16°C° 0.1 mm 6 mps 754 mmHg 82%
    21:00 -17°C° 0.1 mm 6 mps 755 mmHg 82%
    22:00 -18°C° 0.1 mm 5 mps 755 mmHg 81%
    23:00 -18°C° 0 mm 5 mps 756 mmHg 81%

    25 January, Thursday

    Time Temperature Precipitation Wind Pressure Humidity
    00:00 -19°C° 0 mm 5 mps 756 mmHg 81%
    01:00 -20°C° 0 mm 5 mps 757 mmHg 81%
    02:00 -21°C° 0 mm 5 mps 758 mmHg 81%
    03:00 -21°C° 0 mm 5 mps 758 mmHg 81%
    04:00 -22°C° 0 mm 5 mps 759 mmHg 81%
    05:00 -24°C° 0 mm 5 mps 760 mmHg 81%
    06:00 -25°C° 0 mm 5 mps 761 mmHg 81%
    07:00 -25°C° 0 mm 5 mps 761 mmHg 81%
    08:00 -25°C° 0 mm 5 mps 762 mmHg 80%
    09:00 -24°C° 0 mm 5 mps 762 mmHg 79%
    10:00 -22°C° 0 mm 5 mps 763 mmHg 78%
    11:00 -21°C° 0 mm 5 mps 763 mmHg 78%
    12:00 -20°C° 0 mm 5 mps 763 mmHg 78%
    13:00 -19°C° 0 mm 5 mps 763 mmHg 78%
    14:00 -19°C° 0 mm 5 mps 763 mmHg 78%
    15:00 -18°C° 0 mm 5 mps 763 mmHg 78%
    16:00 -18°C° 0 mm 5 mps 764 mmHg 79%
    17:00 -19°C° 0 mm 5 mps 764 mmHg 80%
    18:00 -18°C° 0 mm 4 mps 765 mmHg 80%
    19:00 -19°C° 0 mm 4 mps 765 mmHg 81%
    20:00 -19°C° 0 mm 4 mps 765 mmHg 82%
    21:00 -19°C° 0 mm 3 mps 765 mmHg 83%
    22:00 -19°C° 0 mm 3 mps 765 mmHg 83%
    23:00 -18°C° 0 mm 2 mps 765 mmHg 84%
    Show more